Flag for Åland Islands

Past Weather in Mariehamn, Åland Islands — Yesterday and Last 2 Weeks

Currently: 27 °F. Overcast. (Weather station: Mariehamn / Aland Island, Åland Islands). See more current weather

Past Weather in Mariehamn — Graph

°F

Mariehamn Temperature Yesterday

Maximum temperature yesterday: 25 °F (at 2:50 am)
Minimum temperature yesterday: 12 °F (at 11:20 pm)
Average temperature yesterday: 20 °F

High & Low Weather Summary for the Past Weeks

 TemperatureHumidityPressure
High50 °F (Nov 19, 7:50 pm)100% (Nov 21, 12:50 am)29.98 "Hg (Nov 21, 12:50 am)
Low12 °F (Dec 3, 11:20 pm)55% (Dec 1, 1:50 am)29.21 "Hg (Nov 19, 5:20 pm)
Average30 °F81%29.55 "Hg
* Reported Nov 19 3:20 pm — Dec 4 3:20 pm, Mariehamn. Weather by CustomWeather, © 2021

Note: Actual official high and low records may vary slightly from our data, if they occured in-between our weather recording intervals... More about our weather records

Mariehamn Weather History for the Previous 24 Hours

Scroll right to see more
 ConditionsComfort  
Time TempWeatherWind HumidityBarometerVisibility
3:20 pm
Sat, Dec 4
27 °FOvercast.7 mph80%29.74 "HgN/A
2:50 pm27 °FOvercast.6 mph80%29.74 "HgN/A
2:20 pm27 °FOvercast.3 mph80%29.74 "HgN/A
1:50 pm27 °FOvercast.7 mph80%29.74 "HgN/A
1:20 pm27 °FOvercast.6 mph86%29.74 "HgN/A
12:50 pm25 °FOvercast.5 mph86%29.71 "HgN/A
12:20 pm25 °FPartly sunny.8 mph86%29.71 "HgN/A
11:50 am23 °FPartly sunny.5 mph93%29.71 "HgN/A
11:20 am18 °FSunny.6 mph93%29.71 "Hg10 mi
10:50 am18 °FSunny.3 mph93%29.71 "Hg10 mi
10:20 am18 °FSunny.5 mph93%29.68 "Hg10 mi
9:20 am18 °FPassing clouds.3 mph93%29.68 "HgN/A
8:50 am23 °FPassing clouds.3 mph86%29.68 "HgN/A
8:20 am23 °FPassing clouds.1 mph86%29.68 "HgN/A
7:50 am23 °FPassing clouds.6 mph86%29.65 "HgN/A
7:20 am23 °FOvercast.6 mph93%29.65 "HgN/A
6:50 am25 °FOvercast.7 mph86%29.65 "HgN/A
6:20 am25 °FOvercast.6 mph86%29.65 "HgN/A
5:50 am23 °FOvercast.7 mph93%29.65 "HgN/A
5:20 am23 °FPassing clouds.5 mph86%29.62 "HgN/A
4:50 am23 °FPassing clouds.6 mph86%29.62 "HgN/A
4:20 am21 °FPassing clouds.3 mph93%29.62 "HgN/A
3:50 am21 °FPassing clouds.6 mph86%29.62 "HgN/A
3:20 am19 °FPassing clouds.5 mph93%29.62 "HgN/A
2:50 am18 °FPassing clouds.5 mph93%29.62 "HgN/A
2:20 am19 °FPassing clouds.2 mph93%29.62 "HgN/A
1:50 am19 °FPassing clouds.3 mph93%29.62 "HgN/A
1:20 am19 °FOvercast.2 mph86%29.62 "HgN/A
12:50 am18 °FPassing clouds.2 mph93%29.62 "HgN/A
12:20 am16 °FPassing clouds.5 mph93%29.62 "HgN/A
11:50 pm
Fri, Dec 3
12 °FClear.3 mph92%29.62 "Hg10 mi
11:20 pm12 °FClear.3 mph85%29.59 "Hg10 mi
10:50 pm14 °FClear.5 mph92%29.59 "Hg10 mi
10:20 pm14 °FClear.5 mph92%29.59 "Hg10 mi
9:50 pm14 °FCold.2 mph92%29.59 "HgN/A
9:20 pm14 °FClear.3 mph92%29.56 "Hg10 mi
8:50 pm16 °FClear.2 mph86%29.56 "Hg10 mi
8:20 pm16 °FPassing clouds.2 mph93%29.56 "HgN/A
7:50 pm18 °FPassing clouds.1 mph93%29.56 "HgN/A
7:20 pm16 °FPassing clouds.1 mph93%29.56 "HgN/A
6:50 pm16 °FPassing clouds.2 mph93%29.53 "HgN/A
6:20 pm14 °FPassing clouds.1 mph92%29.53 "HgN/A
5:50 pm16 °FClear.1 mph93%29.53 "Hg10 mi
5:20 pm16 °FClear.2 mph93%29.53 "Hg10 mi
Weather by CustomWeather, © 2021

See weather overview